User: anonymous   Login
Location: Cimarron National Grasslands
(37.1250°N, 101.7500°W)
Time: 22:20:35
(UTC-05:00)
Language:

Ariane Rocket - Orbit

View from above orbital plane
View from above orbital plane
View from above satellite
View from above satellite

Ground track
Ground track

The orbit data is extracted from the following two-line orbital elements,

1 23561U 95021B   16120.55660102  .00000089  00000-0  44915-4 0  9993
2 23561  98.7678 106.7985 0007899  49.3039  58.4304 14.37731432101811
Epoch (UTC): 29 April 2016 13:21:30
Eccentricity: 0.0007899
inclination: 98.7678°
perigee height: 760 km
apogee height: 771 km
right ascension of ascending node: 106.7985°
argument of perigee: 49.3039°
revolutions per day: 14.37731432
mean anomaly at epoch: 58.4304°
orbit number at epoch: 10181

The dashed part of the orbit path shows where the satellite is in the earth's shadow,  

DLR